Location: Oso Ridge
(35.0450°N, 108.0864°W)
Time: 10:32:39
(UTC-06:00)

Amateur Radio Satellites - All Passes

Search period start: 30 May 2015 10:02
Search period end: 31 May 2015 10:02
Location: Oso Ridge, 35.0450°N, 108.0864°W

Satellite Date Start Highest point End Downlink Frequencies (MHz)
Time Altitude Azimuth
TIGRISAT 30 May 10:12:18 10:15:48 22° 70° (ENE) 10:19:23 435.000
UWE-3 30 May 10:17:56 10:21:23 24° 94° (E) 10:24:50 435.000/436.395/437.385
FUNcube-1 30 May 10:18:16 10:21:05 18° 92° (E) 10:24:00 145.935
SRMSAT 30 May 10:22:15 10:24:06 12° 167° (SSE) 10:26:04 437.500
NANOSAT C BR1 30 May 10:22:55 10:23:59 11° 67° (ENE) 10:25:19 145.865
QB50P2 30 May 10:32:22 10:34:47 15° 68° (ENE) 10:37:23 145.880/145.840
UNISAT 6 30 May 10:33:32 10:37:51 38° 73° (ENE) 10:42:09 437.425
CANX-2 30 May 10:38:48 10:42:20 26° 288° (WNW) 10:45:46 2200.000
PCSat 30 May 10:39:47 10:45:05 54° 248° (WSW) 10:50:20 145.827
CUTE 1.7 + AOD 2 30 May 10:41:44 10:45:17 26° 288° (WNW) 10:48:47 437.475
DUCHIFAT 1 30 May 10:41:54 10:44:48 19° 70° (ENE) 10:47:50 145.980
POPSAT HIP 1 30 May 10:42:58 10:46:00 20° 70° (ENE) 10:49:11 437.405
JUGNU 30 May 10:44:16 10:48:10 18° 178° (S) 10:52:04 437.505
SO-50 30 May 10:47:11 10:50:28 18° 46° (NE) 10:53:52 436.795
CINEMA 3 30 May 10:48:19 10:52:49 52° 285° (WNW) 10:57:05 145.822/145.860
BUGSAT 1 30 May 10:48:34 10:50:46 15° 68° (ENE) 10:53:10 437.445
UKube-1 30 May 10:54:04 10:57:11 20° 94° (E) 11:00:26 .
GOMX 1 30 May 10:57:17 11:00:32 16° 294° (WNW) 11:03:27 467.674
SEEDS 30 May 10:58:40 11:01:52 21° 289° (WNW) 11:04:57 437.485
ZACube-1 30 May 10:59:23 11:03:36 59° 100° (E) 11:07:44 437.345
Oscar 11 30 May 11:03:04 11:07:21 65° 284° (WNW) 11:11:35 145.826/435.025
HO-68 30 May 11:04:12 11:10:37 36° 293° (WNW) 11:16:54 435.675
COMPASS 1 30 May 11:05:44 11:08:57 21° 289° (WNW) 11:12:04 437.405
DX 1 30 May 11:07:52 11:11:46 31° 97° (E) 11:15:42 434.975-435.025
CUSAT 1 30 May 11:14:15 11:14:31 10° 79° (E) 11:15:34 437.405
CUBEBUG 2 30 May 11:14:29 11:18:45 53° 285° (WNW) 11:22:52 437.445
AAUSAT CUBESAT 2 30 May 11:14:42 11:17:47 20° 289° (WNW) 11:20:44 437.432
DELFI C3 30 May 11:15:36 11:19:35 60° 284° (WNW) 11:23:32 145.870
ANTELSAT 30 May 11:16:35 11:21:16 69° 259° (W) 11:25:53 437.575/2403.000
RS-15 30 May 11:18:01 11:27:01 27° 323° (NW) 11:35:56 29.354- 29.394
Cosmos 2504 30 May 11:21:19 11:28:59 39° 284° (WNW) 11:36:05 435.465 / 435.565
QB50P1 30 May 11:25:14 11:29:28 63° 75° (ENE) 11:33:44 145.935-145.965
CUBEBUG 1 30 May 11:26:01 11:27:27 12° 90° (E) 11:29:11 437.445
POLYITAN 1 30 May 11:29:20 11:33:37 72° 76° (ENE) 11:37:56 437.675
VELOX 1 30 May 11:36:43 11:40:44 33° 97° (E) 11:44:47 145.980
TIGRISAT 30 May 11:48:11 11:52:23 32° 263° (W) 11:56:30 435.000
FUNcube-1 30 May 11:53:45 11:57:31 30° 288° (WNW) 12:01:09 145.935
UWE-3 30 May 11:54:23 11:57:52 23° 289° (WNW) 12:01:09 435.000/436.395/437.385
ESTCUBE 1 30 May 11:54:35 11:58:35 31° 97° (E) 12:02:38 437.505/2401.250
NANOSAT C BR1 30 May 11:55:11 11:59:24 56° 261° (W) 12:03:37 145.865
HUMSAT D 30 May 11:58:15 12:02:20 60° 284° (WNW) 12:06:21 437.325/437.525
50 SAT 30 May 12:01:03 12:04:55 78° 101° (E) 12:08:45 437.505
QB50P2 30 May 12:06:21 12:10:22 39° 262° (W) 12:14:25 145.880/145.840
SRMSAT 30 May 12:08:48 12:12:34 17° 176° (S) 12:16:21 437.500
AISAT 30 May 12:09:25 12:13:56 84° 102° (ESE) 12:18:24 437.250
UNISAT 6 30 May 12:11:32 12:14:47 18° 267° (W) 12:17:49 437.425
DUCHIFAT 1 30 May 12:16:34 12:20:24 31° 263° (W) 12:24:13 145.980
POPSAT HIP 1 30 May 12:17:55 12:21:42 30° 264° (W) 12:25:28 437.405
BUGSAT 1 30 May 12:22:01 12:25:55 39° 262° (W) 12:29:52 437.445
SO-50 30 May 12:26:34 12:31:26 57° 244° (WSW) 12:36:11 436.795
UKube-1 30 May 12:29:34 12:33:23 30° 289° (WNW) 12:37:07 .
JUGNU 30 May 12:32:59 12:36:30 16° 188° (S) 12:39:57 437.505
DANDE 30 May 12:43:51 12:50:41 47° 90° (E) 12:58:42 436.750
DX 1 30 May 12:44:37 12:47:50 20° 291° (WNW) 12:50:55 434.975-435.025
CUSAT 1 30 May 12:48:30 12:55:49 66° 94° (E) 13:04:05 437.405
CUBEBUG 1 30 May 12:59:50 13:04:11 51° 285° (WNW) 13:08:29 437.445
GONETS M04 30 May 13:09:39 13:18:17 63° 92° (E) 13:27:00
VELOX 1 30 May 13:13:49 13:17:05 20° 291° (WNW) 13:20:13 145.980
SPROUT 30 May 13:23:33 13:27:54 76° 102° (ESE) 13:32:11 437.525
Gurwin Techsat 1B 30 May 13:26:06 13:27:02 11° 63° (ENE) 13:28:19 435.225
TISAT 1 30 May 13:31:37 13:35:53 66° 102° (ESE) 13:40:04 437.305
ESTCUBE 1 30 May 13:31:49 13:35:17 21° 290° (WNW) 13:38:37 437.505/2401.250
Oscar 19 30 May 13:37:44 13:42:47 56° 74° (ENE) 13:47:53 437.125/150
RS-15 30 May 13:41:17 13:45:14 12° 358° (N) 13:49:10 29.354- 29.394
Cosmos 2499 30 May 13:49:32 13:54:03 17° 85° (E) 13:58:51 435.465 / 435.565
SRMSAT 30 May 13:57:23 14:01:03 17° 186° (S) 14:04:40 437.500
ITAMSAT 1 30 May 14:01:26 14:05:38 26° 69° (ENE) 14:09:56 435.822/435.867
DANDE 30 May 14:27:26 14:34:11 34° 290° (WNW) 14:41:39 436.750
CUSAT 1 30 May 14:33:00 14:39:16 25° 294° (WNW) 14:45:40 437.405
ITUPSAT 1 30 May 14:38:40 14:43:19 50° 100° (E) 14:47:59 437.325
BEESAT 30 May 14:43:44 14:48:27 59° 101° (E) 14:53:10 436.000
SWISSCUBE 30 May 14:52:50 14:57:38 82° 105° (ESE) 15:02:26 437.505
Gurwin Techsat 1B 30 May 15:01:04 15:06:23 85° 257° (WSW) 15:11:44 435.225
GONETS M04 30 May 15:08:47 15:15:51 25° 291° (WNW) 15:22:36
HORYU 2 30 May 15:10:21 15:13:09 17° 69° (ENE) 15:16:07 437.375
O/OREOS (USA 219) 30 May 15:11:37 15:16:06 68° 108° (ESE) 15:20:34 437.305
Oscar 19 30 May 15:19:35 15:22:33 15° 269° (W) 15:25:14 437.125/150
KKS-1 30 May 15:20:55 15:24:27 23° 95° (E) 15:28:03 437.445
Cosmos 2499 30 May 15:38:31 15:46:38 74° 277° (W) 15:54:10 435.465 / 435.565
ITAMSAT 1 30 May 15:40:25 15:45:02 32° 264° (W) 15:49:36 435.822/435.867
SRMSAT 30 May 15:49:17 15:49:29 10° 195° (SSW) 15:49:33 437.500
AO-7 30 May 15:51:59 15:59:58 56° 68° (ENE) 16:08:03 29.400- 29.500
JAS-2 30 May 15:55:04 16:01:34 59° 74° (ENE) 16:07:20 435.910
RS-15 30 May 15:55:33 16:03:58 23° 33° (NNE) 16:13:03 29.354- 29.394
STARS 30 May 16:14:35 16:18:57 59° 101° (E) 16:23:17 437.465
ITUPSAT 1 30 May 16:18:02 16:20:50 15° 293° (WNW) 16:23:26 437.325
BEESAT 2 30 May 16:18:31 16:19:54 12° 109° (ESE) 16:21:29 435.950
BEESAT 30 May 16:23:35 16:25:51 13° 294° (WNW) 16:27:52 436.000
HORYU 2 30 May 16:45:20 16:49:33 38° 262° (W) 16:53:42 437.375
O/OREOS (USA 219) 30 May 16:55:01 16:56:05 11° 305° (NW) 16:56:53 437.305
KKS-1 30 May 16:57:17 17:01:04 27° 289° (WNW) 17:04:45 437.445
BEESAT 3 30 May 16:59:17 17:03:09 46° 115° (ESE) 17:07:07 437.485
YUBILEINY 30 May 17:02:13 17:04:41 12° 60° (ENE) 17:07:57 435.215
MOZHAYETS 4 30 May 17:18:29 17:22:43 37° 98° (E) 17:26:58
Cosmos 2499 30 May 17:39:50 17:41:11 10° 297° (WNW) 17:41:48 435.465 / 435.565
JAS-2 30 May 17:42:30 17:46:57 18° 267° (W) 17:50:48 435.910
AO-7 30 May 17:46:12 17:53:11 28° 265° (W) 17:59:57 29.400- 29.500
STARS 30 May 17:53:34 17:54:56 11° 294° (WNW) 17:56:02 437.465
BEESAT 2 30 May 17:53:36 17:57:35 49° 302° (WNW) 18:01:36 435.950
RS-15 30 May 18:07:09 18:18:52 76° 59° (ENE) 18:31:05 29.354- 29.394
AIST 2 30 May 18:09:41 18:13:51 62° 117° (ESE) 18:18:05 435.215
CUTE-I 30 May 18:22:32 18:27:37 50° 73° (ENE) 18:32:46 437.470
BEESAT 3 30 May 18:39:00 18:41:26 15° 312° (NW) 18:43:45 437.485
Cubesat XI-IV 30 May 18:44:10 18:49:28 82° 78° (ENE) 18:54:50 437.490
STRAND 1 30 May 18:54:16 18:55:36 11° 89° (E) 18:57:19 437.568
YUBILEINY 30 May 18:54:41 19:03:23 75° 82° (E) 19:12:05 435.215
Cosmos 2491 30 May 18:55:53 19:03:57 44° 89° (E) 19:12:11 435.465 / 435.565
MOZHAYETS 4 30 May 18:56:31 18:59:42 18° 291° (WNW) 19:02:43
BRITE-PL 30 May 19:06:22 19:07:57 12° 63° (ENE) 19:09:53 437.365/2234.400
CUBESAT XI-V 30 May 19:08:36 19:13:07 44° 99° (E) 19:17:37 437.345
HO-68 30 May 19:42:59 19:47:56 21° 62° (ENE) 19:53:10 435.675
AIST 2 30 May 19:50:47 19:52:53 13° 314° (NW) 19:54:50 435.215
CANX-2 30 May 19:55:22 19:56:21 11° 68° (ENE) 19:57:35 2200.000
CUTE 1.7 + AOD 2 30 May 19:58:32 19:59:14 10° 67° (ENE) 20:00:13 437.475
CUTE-I 30 May 20:04:32 20:08:02 17° 268° (W) 20:11:19 437.470
AIST 1 30 May 20:06:57 20:10:38 30° 91° (E) 20:14:25
SEEDS 30 May 20:13:16 20:15:06 13° 69° (ENE) 20:17:08 437.485
COMPASS 1 30 May 20:19:57 20:21:29 12° 68° (ENE) 20:23:15 437.405
PRISM 30 May 20:19:57 20:24:06 66° 285° (WNW) 20:28:15 437.425
RS-15 30 May 20:21:06 20:30:34 27° 255° (WSW) 20:39:40 29.354- 29.394
GOMX 1 30 May 20:21:49 20:26:39 41° 72° (ENE) 20:31:46 467.674
M-CUBED/EXP-1 PRIME 30 May 20:26:03 20:29:06 34° 103° (ESE) 20:32:15 437.505
AAUSAT CUBESAT 2 30 May 20:28:10 20:29:56 13° 69° (ENE) 20:31:55 437.432
AUBIESAT-1 30 May 20:30:08 20:33:09 32° 103° (ESE) 20:36:17 437.475
STRAND 1 30 May 20:30:15 20:35:23 69° 285° (WNW) 20:40:30 437.568
BRITE-PL 30 May 20:40:32 20:45:41 83° 258° (WSW) 20:51:15 437.365/2234.400
CUBESAT XI-V 30 May 20:47:15 20:50:13 16° 292° (WNW) 20:53:00 437.345
ISS 30 May 20:48:39 20:48:53 10° 127° (SE) 20:49:17 145.825
Cosmos 2491 30 May 20:52:59 21:00:57 36° 287° (WNW) 21:08:49 435.465 / 435.565
YUBILEINY 30 May 20:53:35 20:59:25 19° 277° (W) 21:04:45 435.215
DOVE 4 30 May 21:01:40 21:06:47 68° 76° (ENE) 21:12:05 437.250
FUNcube-1 30 May 21:12:29 21:13:50 11° 67° (ENE) 21:15:27 145.935
UWE-3 30 May 21:12:34 21:15:17 16° 69° (ENE) 21:18:12 435.000/436.395/437.385
Cosmos 2504 30 May 21:16:41 21:23:45 61° 80° (E) 21:30:57 435.465 / 435.565
CANX-2 30 May 21:27:40 21:31:52 55° 260° (W) 21:36:02 2200.000
HO-68 30 May 21:27:59 21:35:07 67° 257° (WSW) 21:42:17 435.675
CUTE 1.7 + AOD 2 30 May 21:30:32 21:34:44 57° 260° (W) 21:38:55 437.475
AIST 1 30 May 21:45:29 21:48:24 17° 287° (WNW) 21:51:10
CINEMA 3 30 May 21:45:34 21:50:34 87° 258° (WSW) 21:55:39 145.822/145.860
SEEDS 30 May 21:46:31 21:50:33 44° 261° (W) 21:54:36 437.485
UKube-1 30 May 21:47:32 21:49:03 12° 67° (ENE) 21:50:48 .
ZACube-1 30 May 21:51:56 21:56:01 33° 73° (ENE) 22:00:07 437.345
COMPASS 1 30 May 21:52:46 21:56:48 47° 261° (W) 22:00:51 437.405
Oscar 11 30 May 21:54:19 21:58:35 62° 76° (ENE) 22:02:53 145.826/435.025
DELFI C3 30 May 21:59:34 22:03:26 49° 75° (ENE) 22:07:20 145.870
GOMX 1 30 May 22:00:59 22:04:59 21° 269° (W) 22:08:56 467.674
DX 1 30 May 22:01:07 22:04:07 19° 69° (ENE) 22:07:16 434.975-435.025
AAUSAT CUBESAT 2 30 May 22:01:14 22:05:13 43° 261° (W) 22:09:11 437.432
M-CUBED/EXP-1 PRIME 30 May 22:03:26 22:03:44 10° 295° (WNW) 22:03:52 437.505
AUBIESAT-1 30 May 22:06:55 22:07:44 11° 295° (WNW) 22:08:23 437.475
CUBEBUG 2 30 May 22:08:29 22:13:15 84° 76° (ENE) 22:18:02 437.445
ISS 30 May 22:21:47 22:24:58 58° 321° (NW) 22:28:10 145.825
VELOX 1 30 May 22:31:50 22:35:03 21° 69° (ENE) 22:38:24 145.980
50 SAT 30 May 22:42:45 22:46:07 27° 72° (ENE) 22:49:32 437.505
DOVE 4 30 May 22:42:54 22:45:07 12° 272° (W) 22:47:01 437.250
FUNcube-1 30 May 22:45:10 22:49:43 62° 260° (W) 22:54:14 145.935
HUMSAT D 30 May 22:46:18 22:50:33 60° 76° (ENE) 22:54:47 437.325/437.525
UWE-3 30 May 22:47:00 22:51:30 45° 262° (W) 22:55:58 435.000/436.395/437.385
ESTCUBE 1 30 May 22:51:49 22:55:00 20° 69° (ENE) 22:58:20 437.505/2401.250
AISAT 30 May 23:03:53 23:08:10 49° 74° (ENE) 23:12:31 437.250
Cosmos 2504 30 May 23:11:43 23:16:35 19° 275° (W) 23:21:07 435.465 / 435.565
ANTELSAT 30 May 23:12:29 23:16:16 29° 96° (E) 23:20:02 437.575/2403.000
QB50P1 30 May 23:15:29 23:17:24 13° 91° (E) 23:19:32 145.935-145.965
POLYITAN 1 30 May 23:19:33 23:21:56 15° 92° (E) 23:24:30 437.675
UKube-1 30 May 23:20:33 23:24:47 53° 260° (W) 23:29:02 .
GONETS M04 30 May 23:24:59 23:31:50 26° 69° (ENE) 23:38:56
ZACube-1 30 May 23:29:00 23:32:26 20° 267° (W) 23:35:44 437.345
DANDE 30 May 23:31:42 23:37:45 29° 67° (ENE) 23:42:43 436.750
CUSAT 1 30 May 23:33:29 23:39:23 36° 71° (ENE) 23:44:02 437.405
PCSat 30 May 23:35:27 23:40:06 31° 109° (ESE) 23:44:52 145.827
DX 1 30 May 23:36:14 23:40:10 32° 263° (W) 23:44:04 434.975-435.025
VERMONT LUNAR 30 May 23:36:32 23:39:28 32° 149° (SSE) 23:42:26 437.305
TIGRISAT 30 May 23:42:50 23:47:09 68° 101° (E) 23:51:22 435.000
NANOSAT C BR1 30 May 23:43:43 23:47:24 29° 96° (E) 23:51:07 145.865
CUBEBUG 1 30 May 23:52:22 23:56:43 86° 77° (ENE) 00:01:08 437.445
QB50P2 30 May 23:54:48 23:58:50 41° 98° (E) 00:02:51 145.880/145.840
DUCHIFAT 1 31 May 00:04:05 00:08:14 50° 99° (E) 00:12:21 145.980
UNISAT 6 31 May 00:05:17 00:09:35 61° 284° (WNW) 00:13:46 437.425
POPSAT HIP 1 31 May 00:05:49 00:10:00 55° 100° (E) 00:14:09 437.405
BUGSAT 1 31 May 00:07:23 00:11:19 36° 98° (E) 00:15:14 437.445
VELOX 1 31 May 00:07:30 00:11:26 30° 263° (W) 00:15:22 145.980
SPROUT 31 May 00:14:32 00:18:30 37° 73° (ENE) 00:22:32 437.525
50 SAT 31 May 00:18:02 00:20:51 18° 267° (W) 00:23:32 437.505
TISAT 1 31 May 00:20:44 00:24:28 31° 72° (ENE) 00:28:18 437.305
ESTCUBE 1 31 May 00:27:40 00:31:42 32° 263° (W) 00:35:41 437.505/2401.250
AISAT 31 May 00:43:06 00:45:06 12° 270° (W) 00:46:50 437.250
QB50P1 31 May 00:49:29 00:53:32 42° 286° (WNW) 00:57:31 145.935-145.965
ANTELSAT 31 May 00:49:44 00:52:53 19° 290° (WNW) 00:55:52 437.575/2403.000
POLYITAN 1 31 May 00:54:05 00:58:02 36° 287° (WNW) 01:01:55 437.675
PHONESAT 2.4 31 May 00:58:11 01:01:27 37° 150° (SSE) 01:04:45 2401.200-2431.200
VERMONT LUNAR 31 May 01:13:25 01:16:35 49° 343° (NNW) 01:19:45 437.305
DANDE 31 May 01:14:44 01:21:09 37° 272° (W) 01:26:04 436.750
CUSAT 1 31 May 01:16:46 01:21:41 24° 275° (W) 01:25:34 437.405
PCSat 31 May 01:18:40 01:23:29 31° 305° (NW) 01:28:16 145.827
NANOSAT C BR1 31 May 01:19:56 01:23:05 20° 290° (WNW) 01:26:05 145.865
GONETS M04 31 May 01:20:44 01:29:19 60° 268° (W) 01:37:46
BEESAT 3 31 May 01:22:33 01:24:11 12° 46° (NE) 01:25:59 437.485
O/OREOS (USA 219) 31 May 01:24:48 01:29:17 75° 69° (ENE) 01:33:44 437.305
QB50P2 31 May 01:32:00 01:34:24 14° 292° (WNW) 01:36:37 145.880/145.840
Cosmos 2499 31 May 01:33:58 01:39:51 29° 73° (ENE) 01:46:03 435.465 / 435.565
DUCHIFAT 1 31 May 01:41:57 01:43:39 12° 293° (WNW) 01:45:07 145.980
ITUPSAT 1 31 May 01:42:24 01:46:48 40° 73° (ENE) 01:51:16 437.325
BUGSAT 1 31 May 01:43:50 01:46:31 16° 291° (WNW) 01:49:01 437.445
POPSAT HIP 1 31 May 01:44:07 01:45:27 11° 293° (WNW) 01:46:32 437.405
BEESAT 31 May 01:47:02 01:51:33 46° 73° (ENE) 01:56:07 436.000
SPROUT 31 May 01:52:07 01:54:47 15° 268° (W) 01:57:15 437.525
Oscar 19 31 May 01:53:14 01:57:24 25° 95° (E) 02:01:38 437.125/150
SWISSCUBE 31 May 01:56:05 02:00:46 64° 75° (ENE) 02:05:29 437.505
TISAT 1 31 May 01:57:23 02:00:21 18° 267° (W) 02:03:11 437.305
BEESAT 2 31 May 02:15:54 02:19:39 34° 55° (NE) 02:23:21 435.950
KKS-1 31 May 02:17:00 02:19:31 15° 68° (ENE) 02:22:14 437.445
ITAMSAT 1 31 May 02:19:25 02:20:56 11° 89° (E) 02:22:50 435.822/435.867
AIST 2 31 May 02:35:28 02:38:10 17° 48° (NE) 02:40:57 435.215
PHONESAT 2.4 31 May 02:36:07 02:39:32 49° 344° (NNW) 02:42:56 2401.200-2431.200
SO-50 31 May 02:37:26 02:42:05 80° 300° (WNW) 02:46:55 436.795
VERMONT LUNAR 31 May 02:51:16 02:54:09 29° 0° (N) 02:57:01 437.305
BEESAT 3 31 May 02:58:36 03:02:36 58° 244° (WSW) 03:06:30 437.485
STARS 31 May 03:08:21 03:12:21 35° 72° (ENE) 03:16:25 437.465
Gurwin Techsat 1B 31 May 03:20:42 03:25:53 50° 99° (E) 03:31:02 435.225
ITUPSAT 1 31 May 03:21:41 03:24:55 17° 268° (W) 03:27:57 437.325
Cosmos 2499 31 May 03:26:35 03:33:08 41° 269° (W) 03:39:50 435.465 / 435.565
BEESAT 31 May 03:26:52 03:29:41 15° 268° (W) 03:32:17 436.000
Oscar 19 31 May 03:32:13 03:36:47 32° 289° (WNW) 03:41:15 437.125/150
SWISSCUBE 31 May 03:38:05 03:39:09 10° 271° (W) 03:39:52 437.505
KKS-1 31 May 03:51:34 03:55:49 43° 261° (W) 04:00:07 437.445
BEESAT 2 31 May 03:54:47 03:57:29 17° 249° (WSW) 04:00:01 435.950
ITAMSAT 1 31 May 03:55:49 04:01:02 70° 285° (WNW) 04:06:13 435.822/435.867
AO-7 31 May 03:58:34 04:04:20 21° 92° (E) 04:10:30 29.400- 29.500
AIST 2 31 May 04:13:00 04:16:59 41° 245° (WSW) 04:20:51 435.215
PHONESAT 2.4 31 May 04:14:53 04:18:03 31° 1° (N) 04:21:13 2401.200-2431.200
MOZHAYETS 4 31 May 04:17:44 04:21:22 24° 71° (ENE) 04:25:05
SO-50 31 May 04:22:31 04:23:33 10° 320° (NW) 04:24:19 436.795
VERMONT LUNAR 31 May 04:28:33 04:31:41 50° 16° (NNE) 04:34:49 437.305
HORYU 2 31 May 04:39:32 04:43:50 50° 100° (E) 04:48:07 437.375
STARS 31 May 04:45:50 04:48:56 18° 267° (W) 04:51:52 437.465
ISS 31 May 04:52:00 04:54:59 33° 36° (NE) 04:58:00 145.825
JAS-2 31 May 04:52:08 04:57:20 66° 101° (ESE) 05:02:53 435.910
Gurwin Techsat 1B 31 May 05:01:54 05:05:30 18° 293° (WNW) 05:08:53 435.225
Cosmos 2491 31 May 05:11:42 05:16:54 18° 64° (ENE) 05:22:37 435.465 / 435.565
AO-7 31 May 05:49:33 05:57:54 72° 289° (WNW) 06:06:11 29.400- 29.500
PHONESAT 2.4 31 May 05:53:05 05:56:31 58° 18° (NNE) 05:59:57 2401.200-2431.200
MOZHAYETS 4 31 May 05:54:37 05:58:31 26° 265° (W) 06:02:19
YUBILEINY 31 May 05:59:34 06:03:52 16° 81° (E) 06:08:47 435.215
VERMONT LUNAR 31 May 06:05:55 06:08:47 30° 211° (SSW) 06:11:38 437.305
STRAND 1 31 May 06:07:09 06:09:12 13° 65° (ENE) 06:11:33 437.568
CUBESAT XI-V 31 May 06:09:07 06:13:04 30° 71° (ENE) 06:17:06 437.345
HORYU 2 31 May 06:17:58 06:20:06 13° 293° (WNW) 06:21:59 437.375
ISS 31 May 06:28:53 06:31:15 18° 230° (SW) 06:33:33 145.825
JAS-2 31 May 06:39:44 06:42:06 13° 294° (WNW) 06:44:12 435.910
CUTE-I 31 May 06:43:23 06:47:47 26° 95° (E) 06:52:17 437.470
Cubesat XI-IV 31 May 07:04:56 07:10:02 43° 98° (E) 07:15:09 437.490
Cosmos 2491 31 May 07:06:12 07:15:04 84° 265° (W) 07:23:50 435.465 / 435.565
PRISM 31 May 07:06:44 07:10:43 55° 74° (ENE) 07:14:43 437.425
M-CUBED/EXP-1 PRIME 31 May 07:11:16 07:14:55 32° 70° (ENE) 07:18:22 437.505
AUBIESAT-1 31 May 07:14:56 07:18:29 30° 69° (ENE) 07:21:50 437.475
PHONESAT 2.4 31 May 07:31:28 07:34:31 28° 212° (SSW) 07:37:31 2401.200-2431.200
STRAND 1 31 May 07:42:51 07:47:54 67° 258° (WSW) 07:53:00 437.568
AO-7 31 May 07:45:25 07:49:27 14° 306° (NW) 07:52:57 29.400- 29.500
CUBESAT XI-V 31 May 07:46:55 07:50:32 22° 266° (W) 07:54:04 437.345
YUBILEINY 31 May 07:50:56 07:59:44 87° 276° (W) 08:08:31 435.215
AIST 1 31 May 07:54:06 07:58:31 82° 83° (E) 08:02:55
CUTE-I 31 May 08:23:05 08:27:54 34° 290° (WNW) 08:32:39 437.470
RS-15 31 May 08:26:20 08:37:01 67° 114° (ESE) 08:47:58 29.354- 29.394
PCSat 31 May 08:27:27 08:30:17 14° 47° (NE) 08:33:19 145.827
GOMX 1 31 May 08:28:52 08:31:53 16° 89° (E) 08:35:01 467.674
JUGNU 31 May 08:41:55 08:44:49 14° 169° (S) 08:47:47 437.505
Cubesat XI-IV 31 May 08:45:50 08:49:52 21° 293° (WNW) 08:53:44 437.490
M-CUBED/EXP-1 PRIME 31 May 08:47:05 08:49:48 16° 260° (W) 08:52:13 437.505
BRITE-PL 31 May 08:49:19 08:54:35 45° 97° (E) 08:59:34 437.365/2234.400
AUBIESAT-1 31 May 08:50:31 08:53:17 17° 260° (W) 08:55:46 437.475
HO-68 31 May 08:59:58 09:05:51 28° 95° (E) 09:11:55 435.675
DOVE 4 31 May 09:05:32 09:09:25 24° 92° (E) 09:13:14 437.250
Cosmos 2491 31 May 09:06:48 09:10:49 13° 280° (W) 09:14:04 435.465 / 435.565
CANX-2 31 May 09:16:29 09:20:11 30° 96° (E) 09:23:56 2200.000
CUTE 1.7 + AOD 2 31 May 09:19:18 09:22:58 29° 96° (E) 09:26:40 437.475
SEEDS 31 May 09:34:04 09:37:55 35° 97° (E) 09:41:47 437.485
COMPASS 1 31 May 09:39:31 09:43:15 32° 97° (E) 09:47:01 437.405
CINEMA 3 31 May 09:44:58 09:48:51 28° 95° (E) 09:52:39 145.822/145.860
Oscar 11 31 May 09:46:26 09:48:41 14° 91° (E) 09:51:09 145.826/435.025
AAUSAT CUBESAT 2 31 May 09:47:25 09:51:11 34° 97° (E) 09:54:58 437.432
YUBILEINY 31 May 09:53:10 09:58:04 15° 297° (WNW) 10:02:19 435.215
